Regional Weather Roundup
Issued by NWS Newport/Morehead, NC

Current Version | Previous Version | Text Only | Print | Product List | Glossary Off
Versions: 1 2 3 4 5 6 7 8 9 10 11 12 13 14 15 16 17 18 19 20 21 22 23 24 25 26 27 28 29 30 31 32 33 34 35 36 37 38 39 40 41 42 43 44 45 46 47 48 49 50
000 ASUS42 KMHX 210825 RWRMHX WEATHER ROUNDUP FOR EASTERN NORTH CAROLINA NATIONAL WEATHER SERVICE NEWPORT/MOREHEAD CITY NC 400 AM EDT SAT APR 21 2018 NOTE: "FAIR" INDICATES FEW OR NO CLOUDS BELOW 12,000 FEET WITH NO SIGNIFICANT WEATHER AND/OR OBSTRUCTIONS TO VISIBILITY NCZ015>017-031-032-045>047-102-103-210900- NORTH COAST CITY SKY/WX TMP DP RH WIND PRES REMARKS EDENTON FAIR 41 38 91 CALM 30.40S ELIZABETH CITY FAIR 40 39 97 W3 30.39R KITTY HAWK FAIR 44 36 73 CALM 30.37R MANTEO FAIR 37 35 90 CALM 30.39R $$ NCZ045>047-081-094-103-104-210900- CENTRAL COAST CITY SKY/WX TMP DP RH WIND PRES REMARKS FRISCO FAIR 47 36 65 NE6 30.37R $$ NCZ095-097-098-100-101-210900- SOUTHERN COAST CITY SKY/WX TMP DP RH WIND PRES REMARKS BEAUFORT FAIR 46 43 89 NE5 30.37R CEDAR ISLAND NOT AVBL JACKSONVILLE FAIR 41 40 96 CALM 30.36R PINEY ISLAND NOT AVBL WILMINGTON FAIR 41 39 93 NE3 30.35R $$ NCZ011>013-027>030-043-044-078>080-089-090>093-098-210900- COASTAL PLAIN CITY SKY/WX TMP DP RH WIND PRES REMARKS AHOSKIE FAIR 37 37 100 CALM 30.41R CLINTON FAIR 41 40 95 CALM 30.38R ELIZABETHTOWN FAIR 41 39 92 MISG 30.36R GOLDSBORO FAIR 38 35 86 CALM 30.35S GREENVILLE FAIR 39 37 93 CALM 30.39S HAVELOCK NOT AVBL KENANSVILLE FAIR 36 34 93 CALM 30.37R KINSTON FAIR 38 36 91 NE3 30.38S NEW BERN FAIR 39 39 100 CALM 30.39R RICHLANDS FAIR 36 35 96 CALM 30.38R ROCKY MOUNT FAIR 37 35 92 NE5 30.39R WASHINGTON FAIR 39 37 92 CALM 30.40R WHITEVILLE FAIR 41 40 95 CALM 30.35R $$ AMZ130-135-150-152-154-156-158-170-250-252-270-ANZ085-086-088-633-658-670-210900- MARINE OBSERVATIONS STATION/POSITION TIME TEMP WIND PRES WAVE SWELL AIR SEA DIR/SP/G HT/PER HT/PER (UTC) (F) (DEG/KT/KT) (MB) (FT/S) (FT/S) CHESAPEAKE LIGHT NOT AVBL 64 E VA BEACH 0750 48 48 270/ 4/ 6 1029.2 3/ 7 2/ 7 DUCK 0800 51 52 250/ 4/ 5 1028.3 2 E DUCK 0800 51 N/A 2/ 8 OREGON INLET 0800 46 56 290/ 1/ 2 1028.6 13E OREGON INLT 0748 50 N/A 3/ 8 3/ 8 HATTERAS CG 0800 52 60 50/ 5/ 8 1028.3 DIAMOND BUOY 0810 56 69 20/ 12/ 16 1028.6 CAPE LOOKOUT 0800 50/ 13/ 15 1028.5 BEAUFORT LAB 0800 48 62 30/ 4/ 5 1028.6 30 SE NEW RVR IN 0808 59 65 80/ 8/ 12 1028.1 30 SE NEW RVR IN 0800 66 N/A 2/ 8 27 SE WRIGHTSVLE 0808 60 66 90/ 12/ 19 1027.6 5 SE WRIGHTSVLE 0808 59 60 100/ 8/ 12 1027.3 225 S CAPE HAT 0810 62 71 60/ 12/ 19 1025.1 41 SE CHARLESTON 0810 63 70/ 19/ 23 1025.4 $$

USA.gov is the U.S. government's official web portal to all federal, state and local government web resources and services.